Regional Weather Roundup
Issued by NWS Upton, NY

Current Version | Previous Version | Text Only | Print | Product List | Glossary On
Versions: 1 2 3 4 5 6 7 8 9 10 11 12 13 14 15 16 17 18 19 20 21 22 23 24 25 26 27 28 29 30 31 32 33 34 35 36 37 38 39 40 41 42 43 44 45 46 47 48 49 50
999
ASUS41 KOKX 242209
RWROKX

REGIONAL WEATHER ROUNDUP
NATIONAL WEATHER SERVICE NEW YORK NY
600 PM EDT SUN SEP 24 2017

NOTE: "FAIR" INDICATES FEW OR NO CLOUDS BELOW 12,000 FEET WITH NO
SIGNIFICANT WEATHER AND/OR OBSTRUCTIONS TO VISIBILITY.

NYZ071-072-176-178-NJZ106-104-242300-
NEW YORK CITY METRO AREA

CITY           SKY/WX    TMP DP  RH WIND       PRES   REMARKS
Central Park   CLEAR     85  64  49 S3        30.04S
Bronx Bot Gard   N/A     90  63  40 CALM      30.02S HX  90
LaGuardia APRT PTCLDY    86  65  49 S9        30.01R
Kennedy INTL   CLEAR     79  62  56 SE6       30.03S
Breezy Point     N/A     73 N/A N/A SE7         N/A
Newark/Liberty PTCLDY    86  64  47 S7        30.01R
Teterboro      CLEAR     90  63  40 E6        30.00R HX  91
$$

NYZ177-179-078>081-242300-
LONG ISLAND NEW YORK

CITY           SKY/WX    TMP DP  RH WIND       PRES   REMARKS
Jones Beach      N/A     73 N/A N/A SE6         N/A
Matinecock PT    N/A     79 N/A N/A E5          N/A
Farmingdale    CLEAR     79  60  52 S7        30.03S
MacArthur/ISP  CLEAR     78  58  49 S3        30.02S
Shirley        CLEAR     79  63  57 SW5       30.03S
Mt Sinai Harb    N/A     81 N/A N/A S3          N/A
Westhampton    CLEAR     75  58  55 CALM      30.04F
East Hampton   FAIR      73  58  58 CALM      30.02S
Montauk          N/A     75  61  61 CALM      30.04S
$$

NYZ052-065-067-242300-
HUDSON VALLEY

CITY           SKY/WX    TMP DP  RH WIND       PRES   REMARKS
White Plains   CLEAR     83  65  54 SE3       30.03R
Larchmont Harb   N/A     79 N/A N/A MISG        N/A
Croton On Huds   N/A     86 N/A N/A MISG        N/A
Newburgh       CLEAR     88  64  45 E6        30.05S
Montgomery     CLEAR     86  68  54 N3        30.02S
Poughkeepsie   CLEAR     88  65  46 CALM      30.00S HX  90
Albany         CLEAR     88  65  46 CALM      30.03S HX  90
$$

NJZ001-105-106-008-010-013-015-019>022-104-242300-
NEW JERSEY

CITY           SKY/WX    TMP DP  RH WIND       PRES   REMARKS
Newark/Liberty PTCLDY    86  64  47 S7        30.01R
Teterboro      CLEAR     90  63  40 E6        30.00R HX  91
Caldwell       CLEAR     89  66  46 CALM      30.02S HX  91
Somerville     NOT AVBL
Linden         NOT AVBL
Perth Amboy      N/A     84 N/A N/A E6          N/A
Sussex         CLEAR     85  68  56 CALM      30.04S
Andover          N/A     82  68  62 CALM      30.04F
Trenton        CLEAR     89  65  44 CALM      30.01S HX  91
Millville      CLEAR     82  69  64 CALM      30.03S
Atlantic City  CLEAR     79  64  60 SE6       30.03S
Wrightstown    CLEAR     84  68  57 SE3       29.99S
Toms River     CLEAR     81  66  60 SE5       30.03
Belmar         CLEAR     80  65  59 SE3       30.04S
$$

PAZ047>061-062-071-242300-
EASTERN PENNSYLVANIA

CITY           SKY/WX    TMP DP  RH WIND       PRES   REMARKS
Philadelphia   PTCLDY    88  64  44 SE6       30.01S
Allentown      CLEAR     89  63  41 E8        30.03S HX  90
Scranton       CLEAR     88  64  44 N7        30.07S
$$

CTZ002-004>006-009-010-012-RIZ004-006-007-MAZ004-011-015-242300-
SOUTHERN NEW ENGLAND
 IN CT

CITY           SKY/WX    TMP DP  RH WIND       PRES   REMARKS
Bradley INTL   PTCLDY    89  65  44 CALM      30.01S HX  91
Hartford       CLEAR     86  68  54 SE3       30.00S
Danbury        CLEAR     87  65  47 NE3       30.04S
Wtrbury/Oxford CLEAR     85  67  54 CALM      30.05S
Norwalk Harbor   N/A     79 N/A N/A N2          N/A
Bridgeport     CLEAR     82  63  52 E3        30.01F
Meriden        CLEAR     82  64  54 S7        30.01S
New Haven      CLEAR     81  63  54 CALM      30.02S
Chester        FAIR      82  63  51 S3        30.04R
Groton         CLEAR     74  64  71 CALM      30.02S
Wilimantic     CLEAR     86  69  56 S7        30.01R HX  90

 IN RI

CITY           SKY/WX    TMP DP  RH WIND       PRES   REMARKS
Providence     CLEAR     80  67  64 S3        30.02S
Block Island   CLEAR     73  64  73 CALM      30.03S
Westerly       CLEAR     77  61  57 CALM      30.03S
 IN MA

CITY           SKY/WX    TMP DP  RH WIND       PRES   REMARKS
Boston         CLEAR     73  64  73 NE3       30.01F
Worcester      CLEAR     83  64  52 S3        30.05F
Westfield      CLEAR     88  65  46 CALM      30.01S HX  90
Provincetown   CLEAR     71  66  84 CALM        N/A
Nantucket      PTCLDY    68  67  96 NE6       30.03R
$$

ANZ330-335-338-340-345-350-353-355-242300-
COASTAL MARINE OBSERVATIONS


STATION/POSITION TIME  SKY/WX   TEMP    WIND        PRES    VSBY  WAVE
                                AIR SEA DIR/SP/G                  HT/PER
                 (UTC)          (F)     (DEG/KT/KT) (MB)    (MI)  (FT/S)
NY HARB ENTRANCE 2050            75 74  180/  6/  6 1015.8          3/13
20 S FIRE ISLAND 2050            71 70  110/  4/  4 1016.7          4/11
GREAT SOUTH BAY  2115            74 74   CALM  /  2   N/A
23 SSW MONTAUK P 2050            70 67              1017.2          5/14
15 E BARNEGAT LI 2130               71                N/A           4/13
HUDSON CANYON    2050            69 69   30/  8/ 10 1015.7          6/13
KINGS POINT      2148            81 72  200/  9/ 10 1017.1
EXECUTION ROCKS  2145            87      60/  4/  4   N/A
WESTERN LI SOUND NOT AVBL
CENTRAL LI SOUND 2115            76     340/  4/  6   N/A           1
EASTERN LI SOUND NOT AVBL
ROBBINS REEF     2148            76     180/ 14/ 14 1017.0
$$


>>>>>>>>>>>>>>>>>>>>>>>>>>>> KEY <<<<<<<<<<<<<<<<<<<<<<<<<<<
>                                                          <
>     SKY/WX - Sky Condition/Present Weather               <
>     TMP    - Temperature in Fahrenheit                   <
>     DP     - Dew Point in Fahrenheit                     <
>     RH     - Relative Humidity in Percent                <
>     WIND   - Direction (from) and Speed in MPH           <
>     PRES   - Mean Sea Level Pressure (inches of Hg)      <
>     WCI    - Wind Chill Index                            <
>     VSB    - VISIBILITY IN MILES                         <
>     HX     - HEAT INDEX                                  <
>     TC     - TEMPERATURE IN CELSIUS                      <
>     VRB    - VARIABLE WIND DIRECTION                     <
>                                                          <
>>>>>>>>>>>>>>>>>>>>>>>>>>>> KEY <<<<<<<<<<<<<<<<<<<<<<<<<<<




USA.gov is the U.S. government's official web portal to all federal, state and local government web resources and services.